| time (UTC) | temp C | wind direction | speed KPH | gust KPH | rain 1hr cm | rain 24hr cm | rain mn cm | humidity % | barometer mb |
| 20260510095057 | 8 | 231 | 3.2 | 4.8 | 0.00 | 1.17 | 0.00 | 99 | 1004.0 |
| 20260510095039 | 8 | 258 | 3.2 | 4.8 | 0.00 | 1.17 | 0.00 | 99 | 1004.2 |
| 20260510094001 | 8 | 245 | 1.6 | 4.8 | 0.00 | 1.17 | 0.00 | 99 | 1003.9 |
| 20260510093501 | 8 | 227 | 1.6 | 4.8 | 0.00 | 1.17 | 0.00 | 99 | 1003.9 |
| 20260510093001 | 8 | 233 | 1.6 | 3.2 | 0.00 | 1.17 | 0.00 | 99 | 1003.9 |
| 20260510092501 | 8 | 197 | 1.6 | 3.2 | 0.00 | 1.17 | 0.00 | 99 | 1003.7 |
| 20260510092001 | 7 | 223 | 3.2 | 6.4 | 0.00 | 1.17 | 0.00 | 99 | 1003.7 |
| 20260510091501 | 7 | 233 | 3.2 | 6.4 | 0.00 | 1.17 | 0.00 | 99 | 1003.9 |
| 20260510091000 | 7 | 258 | 3.2 | 6.4 | 0.00 | 1.17 | 0.00 | 99 | 1003.9 |
| 20260510090459 | 7 | 250 | 3.2 | 4.8 | 0.00 | 1.17 | 0.00 | 99 | 1003.8 |
| 20260510090000 | 7 | 258 | 3.2 | 4.8 | 0.00 | 1.17 | 0.00 | 99 | 1003.5 |
| 20260510085608 | 7 | 252 | 3.2 | 4.8 | 0.00 | 1.19 | 0.00 | 99 | 1003.5 |
| 20260510085546 | 7 | 283 | 3.2 | 4.8 | 0.00 | 1.19 | 0.00 | 99 | 1003.5 |
| 20260510084755 | 7 | 277 | 3.2 | 4.8 | 0.00 | 1.19 | 0.00 | 99 | 1003.4 |
| 20260510084001 | 7 | 281 | 3.2 | 4.8 | 0.00 | 1.19 | 0.00 | 99 | 1003.4 |
| 20260510083501 | 7 | 269 | 3.2 | 4.8 | 0.00 | 1.19 | 0.00 | 98 | 1003.4 |
| 20260510083002 | 7 | 283 | 3.2 | 4.8 | 0.00 | 1.19 | 0.00 | 98 | 1003.4 |
| 20260510082459 | 7 | 284 | 3.2 | 4.8 | 0.00 | 1.19 | 0.00 | 99 | 1003.4 |
| 20260510082000 | 7 | 290 | 3.2 | 4.8 | 0.00 | 1.19 | 0.00 | 99 | 1003.3 |
| 20260510081456 | 7 | 277 | 3.2 | 4.8 | 0.00 | 1.19 | 0.00 | 99 | 1003.3 |
| 20260510080955 | 7 | 279 | 3.2 | 4.8 | 0.00 | 1.22 | 0.00 | 99 | 1003.2 |
| 20260510080456 | 7 | 245 | 1.6 | 4.8 | 0.00 | 1.22 | 0.00 | 99 | 1003.1 |
| 20260510075956 | 7 | 279 | 1.6 | 4.8 | 0.00 | 1.22 | 0.00 | 99 | 1003.1 |
| 20260510075756 | 7 | 269 | 3.2 | 4.8 | 0.00 | 1.22 | 0.00 | 99 | 1003.0 |
| 20260510074956 | 8 | 269 | 3.2 | 4.8 | 0.00 | 1.24 | 0.00 | 98 | 1003.1 |
| 20260510074456 | 8 | 279 | 3.2 | 4.8 | 0.00 | 1.24 | 0.00 | 99 | 1003.2 |
| 20260510073956 | 8 | 269 | 3.2 | 4.8 | 0.00 | 1.24 | 0.00 | 99 | 1003.1 |
| 20260510073457 | 8 | 291 | 3.2 | 4.8 | 0.00 | 1.27 | 0.00 | 99 | 1003.2 |
| 20260510072954 | 8 | 245 | 1.6 | 4.8 | 0.00 | 1.30 | 0.00 | 99 | 1003.3 |
| 20260510072453 | 8 | 258 | 3.2 | 4.8 | 0.00 | 1.30 | 0.00 | 99 | 1003.3 |
| 20260510071954 | 8 | 314 | 3.2 | 4.8 | 0.00 | 1.32 | 0.00 | 99 | 1003.2 |
| 20260510071453 | 8 | 238 | 3.2 | 4.8 | 0.00 | 1.35 | 0.00 | 99 | 1003.2 |
| 20260510070954 | 8 | 210 | 3.2 | 4.8 | 0.00 | 1.35 | 0.00 | 99 | 1003.4 |
| 20260510070749 | 8 | 331 | 3.2 | 4.8 | 0.00 | 1.37 | 0.00 | 99 | 1003.4 |
| 20260510065955 | 8 | 295 | 3.2 | 4.8 | 0.00 | 1.37 | 0.00 | 99 | 1003.9 |
| 20260510065455 | 8 | 245 | 1.6 | 4.8 | 0.00 | 1.40 | 0.00 | 99 | 1003.8 |
| 20260510064955 | 8 | 229 | 1.6 | 3.2 | 0.00 | 1.42 | 0.00 | 99 | 1003.8 |
| 20260510064750 | 8 | 253 | 1.6 | 4.8 | 0.00 | 1.45 | 0.00 | 99 | 1003.8 |
| 20260510064248 | 8 | 223 | 1.6 | 6.4 | 0.00 | 1.45 | 0.00 | 99 | 1003.8 |
| 20260510063451 | 8 | 114 | 3.2 | 6.4 | 0.00 | 1.47 | 0.00 | 99 | 1003.9 |
| 20260510062949 | 8 | 178 | 3.2 | 4.8 | 0.00 | 1.50 | 0.00 | 99 | 1004.2 |
| 20260510062448 | 8 | 206 | 1.6 | 4.8 | 0.00 | 1.50 | 0.00 | 99 | 1004.2 |
| 20260510061948 | 8 | 295 | 3.2 | 4.8 | 0.00 | 1.50 | 0.00 | 99 | 1004.4 |
| 20260510061447 | 8 | 279 | 3.2 | 4.8 | 0.00 | 1.50 | 0.00 | 99 | 1004.2 |
| 20260510060948 | 8 | 197 | 3.2 | 8.0 | 0.00 | 1.50 | 0.00 | 99 | 1004.2 |
| 20260510060446 | 8 | 283 | 4.8 | 9.7 | 0.00 | 1.52 | 0.00 | 99 | 1004.6 |
| 20260510060241 | 8 | 290 | 4.8 | 9.7 | 0.00 | 1.52 | 0.00 | 99 | 1004.4 |
| 20260510055549 | 8 | 269 | 3.2 | 6.4 | 0.00 | 1.52 | 0.00 | 99 | 1004.8 |
| 20260510055528 | 8 | 281 | 3.2 | 6.4 | 0.00 | 1.52 | 0.00 | 99 | 1004.8 |
| 20260510054443 | 8 | 250 | 4.8 | 9.7 | 0.00 | 1.52 | 0.00 | 99 | 1004.8 |
| 20260510054241 | 8 | 283 | 6.4 | 12.9 | 0.00 | 1.55 | 0.00 | 99 | 1004.8 |
| 20260510053439 | 8 | 269 | 8.0 | 12.9 | 0.00 | 1.55 | 0.00 | 99 | 1004.9 |
| 20260510052940 | 8 | 272 | 6.4 | 16.1 | 0.00 | 1.55 | 0.00 | 99 | 1005.0 |
| 20260510052736 | 7 | 300 | 4.8 | 17.7 | 0.00 | 1.55 | 0.00 | 99 | 1004.8 |
| 20260510051937 | 7 | 218 | 3.2 | 17.7 | 0.00 | 1.55 | 0.00 | 99 | 1004.7 |
| 20260510051436 | 7 | 223 | 4.8 | 9.7 | 0.00 | 1.55 | 0.00 | 98 | 1004.6 |
| 20260510050935 | 7 | 290 | 4.8 | 9.7 | 0.00 | 1.55 | 0.00 | 98 | 1004.6 |
| 20260510050734 | 6 | 260 | 3.2 | 4.8 | 0.00 | 1.55 | 0.00 | 98 | 1004.1 |
| 20260510045935 | 6 | 233 | 1.6 | 3.2 | 0.00 | 1.55 | 0.00 | 98 | 1004.0 |
| 20260510045435 | 6 | 223 | 1.6 | 4.8 | 0.00 | 1.55 | 0.00 | 98 | 1003.8 |
| 20260510045237 | 6 | 178 | 3.2 | 8.0 | 0.00 | 1.55 | 0.00 | 98 | 1003.8 |
| 20260510044436 | 7 | 276 | 3.2 | 8.0 | 0.00 | 1.55 | 0.00 | 98 | 1003.9 |
| 20260510043937 | 7 | 283 | 3.2 | 3.2 | 0.00 | 1.55 | 0.00 | 98 | 1003.9 |
| 20260510043437 | 7 | 257 | 3.2 | 4.8 | 0.00 | 1.55 | 0.00 | 98 | 1003.9 |
| 20260510042933 | 7 | 269 | 3.2 | 4.8 | 0.00 | 1.55 | 0.00 | 98 | 1003.9 |
| 20260510042431 | 7 | 277 | 1.6 | 4.8 | 0.00 | 1.55 | 0.00 | 98 | 1003.9 |
| 20260510041931 | 7 | 269 | 1.6 | 3.2 | 0.00 | 1.55 | 0.00 | 98 | 1003.8 |
| 20260510041431 | 7 | 240 | 1.6 | 3.2 | 0.00 | 1.55 | 0.00 | 98 | 1003.8 |
| 20260510040929 | 7 | 295 | 1.6 | 4.8 | 0.00 | 1.55 | 0.00 | 98 | 1003.8 |
| 20260510040430 | 7 | 283 | 3.2 | 4.8 | 0.00 | 1.55 | 0.00 | 98 | 1003.8 |
| 20260510035929 | 7 | 231 | 3.2 | 4.8 | 0.00 | 1.55 | 1.55 | 98 | 1003.8 |
| 20260510035428 | 7 | 259 | 3.2 | 4.8 | 0.00 | 1.55 | 1.55 | 98 | 1003.6 |
| 20260510034930 | 7 | 269 | 3.2 | 4.8 | 0.00 | 1.55 | 1.55 | 98 | 1003.3 |
| 20260510034429 | 7 | 252 | 3.2 | 4.8 | 0.00 | 1.55 | 1.55 | 99 | 1003.2 |
| 20260510033932 | 7 | 234 | 3.2 | 4.8 | 0.00 | 1.55 | 1.55 | 98 | 1003.1 |
| 20260510033433 | 7 | 252 | 3.2 | 6.4 | 0.00 | 1.55 | 1.55 | 98 | 1003.1 |
| 20260510032931 | 7 | 206 | 3.2 | 8.0 | 0.00 | 1.55 | 1.55 | 98 | 1003.1 |
| 20260510032429 | 7 | 215 | 3.2 | 8.0 | 0.00 | 1.55 | 1.55 | 98 | 1003.2 |
| 20260510031929 | 7 | 231 | 3.2 | 4.8 | 0.00 | 1.55 | 1.55 | 98 | 1003.2 |
| 20260510031429 | 7 | 286 | 3.2 | 4.8 | 0.00 | 1.55 | 1.55 | 98 | 1003.3 |
| 20260510030929 | 7 | 250 | 3.2 | 4.8 | 0.00 | 1.55 | 1.55 | 98 | 1003.2 |
| 20260510030429 | 7 | 258 | 3.2 | 4.8 | 0.00 | 1.55 | 1.55 | 97 | 1003.2 |
| 20260510025929 | 7 | 259 | 1.6 | 4.8 | 0.00 | 1.55 | 1.55 | 98 | 1003.2 |
| 20260510025429 | 7 | 283 | 1.6 | 3.2 | 0.00 | 1.55 | 1.55 | 98 | 1003.2 |
| 20260510024929 | 7 | 269 | 1.6 | 4.8 | 0.00 | 1.55 | 1.55 | 97 | 1003.3 |
| 20260510024724 | 7 | 245 | 1.6 | 4.8 | 0.00 | 1.55 | 1.55 | 97 | 1003.3 |
| 20260510023930 | 7 | 252 | 1.6 | 3.2 | 0.00 | 1.55 | 1.55 | 97 | 1003.3 |
| 20260510023724 | 7 | 257 | 1.6 | 4.8 | 0.00 | 1.55 | 1.55 | 97 | 1003.1 |
| 20260510022929 | 7 | 284 | 1.6 | 4.8 | 0.00 | 1.55 | 1.55 | 97 | 1003.2 |
| 20260510022725 | 7 | 257 | 1.6 | 4.8 | 0.00 | 1.55 | 1.55 | 97 | 1003.1 |
| 20260510021929 | 7 | 258 | 1.6 | 4.8 | 0.00 | 1.55 | 1.55 | 97 | 1003.1 |
| 20260510021429 | 7 | 269 | 1.6 | 3.2 | 0.00 | 1.55 | 1.55 | 97 | 1003.2 |
| 20260510020930 | 7 | 283 | 1.6 | 4.8 | 0.00 | 1.55 | 1.55 | 97 | 1003.2 |
| 20260510020429 | 7 | 269 | 1.6 | 4.8 | 0.00 | 1.55 | 1.55 | 97 | 1003.3 |
| 20260510015930 | 7 | 250 | 1.6 | 4.8 | 0.00 | 1.55 | 1.55 | 97 | 1003.3 |
| 20260510015429 | 7 | 216 | 1.6 | 3.2 | 0.00 | 1.55 | 1.55 | 97 | 1003.2 |
| 20260510014929 | 7 | 253 | 1.6 | 3.2 | 0.00 | 1.55 | 1.55 | 97 | 1003.2 |
| 20260510014430 | 7 | 240 | 1.6 | 3.2 | 0.00 | 1.55 | 1.55 | 97 | 1003.1 |
| 20260510013929 | 7 | 269 | 1.6 | 3.2 | 0.00 | 1.55 | 1.55 | 96 | 1003.0 |
| 20260510013430 | 7 | 269 | 1.6 | 4.8 | 0.00 | 1.55 | 1.55 | 96 | 1003.1 |
| 20260510012929 | 8 | 222 | 1.6 | 4.8 | 0.00 | 1.55 | 1.55 | 96 | 1003.1 |
| 20260510012725 | 8 | 269 | 1.6 | 4.8 | 0.00 | 1.55 | 1.55 | 96 | 1003.1 |
| 20260510012225 | 8 | 252 | 3.2 | 4.8 | 0.00 | 1.55 | 1.55 | 96 | 1003.2 |
| 20260510011729 | 8 | 269 | 3.2 | 4.8 | 0.00 | 1.55 | 1.55 | 96 | 1003.1 |
| 20260510010932 | 8 | 286 | 3.2 | 4.8 | 0.00 | 1.55 | 1.55 | 97 | 1003.0 |
| 20260510010725 | 8 | 284 | 3.2 | 6.4 | 0.00 | 1.55 | 1.55 | 97 | 1002.9 |
| 20260510010230 | 8 | 229 | 3.2 | 6.4 | 0.00 | 1.55 | 1.55 | 96 | 1002.9 |
| 20260510005430 | 8 | 221 | 3.2 | 6.4 | 0.00 | 1.55 | 1.55 | 96 | 1002.9 |
| 20260510004930 | 8 | 252 | 3.2 | 6.4 | 0.00 | 1.55 | 1.55 | 96 | 1002.8 |
| 20260510004431 | 8 | 277 | 3.2 | 8.0 | 0.00 | 1.55 | 1.55 | 96 | 1002.8 |
| 20260510003931 | 8 | 277 | 3.2 | 8.0 | 0.00 | 1.55 | 1.55 | 96 | 1002.8 |
| 20260510003431 | 9 | 260 | 3.2 | 4.8 | 0.00 | 1.55 | 1.55 | 96 | 1002.7 |
| 20260510002932 | 9 | 201 | 1.6 | 4.8 | 0.00 | 1.55 | 1.55 | 96 | 1002.7 |
| 20260510002431 | 9 | 240 | 1.6 | 3.2 | 0.00 | 1.55 | 1.55 | 96 | 1002.8 |
| 20260510001931 | 9 | 223 | 3.2 | 4.8 | 0.00 | 1.55 | 1.55 | 96 | 1002.7 |
| 20260510001432 | 9 | 229 | 3.2 | 4.8 | 0.00 | 1.55 | 1.55 | 96 | 1002.8 |
| 20260510000932 | 10 | 240 | 1.6 | 6.4 | 0.00 | 1.55 | 1.55 | 96 | 1002.6 |
| 20260510000433 | 10 | 269 | 3.2 | 6.4 | 0.00 | 1.55 | 1.55 | 96 | 1002.6 |
| 20260510000227 | 10 | 231 | 3.2 | 6.4 | 0.00 | 1.55 | 1.55 | 97 | 1002.6 |
| 20260509235431 | 10 | 231 | 3.2 | 6.4 | 0.00 | 1.55 | 1.55 | 97 | 1002.3 |
| 20260509234933 | 10 | 245 | 4.8 | 11.3 | 0.00 | 1.55 | 1.55 | 97 | 1002.2 |
| 20260509234432 | 10 | 269 | 4.8 | 11.3 | 0.00 | 1.55 | 1.55 | 97 | 1002.1 |
| 20260509234338 | 10 | 216 | 4.8 | 9.7 | 0.00 | 1.55 | 1.55 | 97 | 1001.9 |
| 20260509234011 | 10 | 233 | 4.8 | 9.7 | 0.00 | 1.55 | 1.55 | 97 | 1002.0 |
| 20260509232931 | 10 | 169 | 4.8 | 9.7 | 0.00 | 1.55 | 1.55 | 97 | 1001.9 |
| 20260509232432 | 10 | 210 | 4.8 | 11.3 | 0.00 | 1.55 | 1.55 | 97 | 1002.1 |
| 20260509231932 | 10 | 250 | 4.8 | 12.9 | 0.00 | 1.55 | 1.55 | 97 | 1002.1 |
| 20260509231431 | 10 | 197 | 6.4 | 12.9 | 0.00 | 1.55 | 1.55 | 97 | 1002.2 |
| 20260509230932 | 10 | 236 | 6.4 | 14.5 | 0.00 | 1.55 | 1.55 | 97 | 1002.1 |
| 20260509230431 | 10 | 223 | 8.0 | 17.7 | 0.00 | 1.55 | 1.55 | 97 | 1002.0 |
| 20260509225932 | 10 | 220 | 9.7 | 17.7 | 0.00 | 1.55 | 1.55 | 97 | 1001.7 |
| 20260509225724 | 10 | 250 | 9.7 | 19.3 | 0.00 | 1.55 | 1.55 | 97 | 1001.6 |
| 20260509225224 | 10 | 209 | 9.7 | 19.3 | 0.00 | 1.55 | 1.55 | 97 | 1001.5 |
| 20260509224429 | 10 | 194 | 8.0 | 17.7 | 0.00 | 1.55 | 1.55 | 97 | 1001.5 |
| 20260509223928 | 10 | 212 | 8.0 | 12.9 | 0.00 | 1.55 | 1.55 | 97 | 1001.5 |
| 20260509223428 | 10 | 213 | 8.0 | 16.1 | 0.00 | 1.55 | 1.55 | 97 | 1001.5 |
| 20260509222930 | 10 | 214 | 8.0 | 16.1 | 0.00 | 1.55 | 1.55 | 97 | 1001.6 |
| 20260509222428 | 10 | 222 | 8.0 | 16.1 | 0.00 | 1.55 | 1.55 | 98 | 1001.6 |
| 20260509221929 | 10 | 190 | 8.0 | 12.9 | 0.00 | 1.55 | 1.55 | 97 | 1001.8 |
| 20260509221430 | 10 | 196 | 6.4 | 12.9 | 0.00 | 1.55 | 1.55 | 97 | 1001.9 |
| 20260509220930 | 10 | 209 | 6.4 | 12.9 | 0.00 | 1.55 | 1.55 | 97 | 1002.0 |
| 20260509220430 | 10 | 216 | 6.4 | 12.9 | 0.00 | 1.55 | 1.55 | 97 | 1002.0 |
| 20260509215929 | 10 | 250 | 6.4 | 14.5 | 0.03 | 1.55 | 1.55 | 97 | 1002.2 |
| 20260509215430 | 10 | 197 | 6.4 | 14.5 | 0.03 | 1.55 | 1.55 | 97 | 1002.2 |
| 20260509214930 | 10 | 193 | 6.4 | 11.3 | 0.03 | 1.55 | 1.55 | 97 | 1002.3 |
| 20260509214429 | 10 | 229 | 8.0 | 19.3 | 0.03 | 1.55 | 1.55 | 96 | 1002.5 |
| 20260509213930 | 10 | 246 | 8.0 | 19.3 | 0.05 | 1.55 | 1.55 | 96 | 1002.5 |
| 20260509213430 | 10 | 207 | 4.8 | 12.9 | 0.05 | 1.55 | 1.55 | 96 | 1002.3 |
| 20260509212930 | 10 | 223 | 4.8 | 12.9 | 0.05 | 1.55 | 1.55 | 96 | 1002.5 |
| 20260509212729 | 10 | 208 | 6.4 | 17.7 | 0.08 | 1.55 | 1.55 | 96 | 1002.6 |
| 20260509211930 | 10 | 250 | 9.7 | 17.7 | 0.08 | 1.55 | 1.55 | 96 | 1002.5 |
| 20260509211539 | 10 | 212 | 12.9 | 25.7 | 0.08 | 1.55 | 1.55 | 95 | 1002.5 |
| 20260509211516 | 10 | 205 | 11.3 | 25.7 | 0.08 | 1.55 | 1.55 | 96 | 1002.3 |
| 20260509210431 | 10 | 226 | 11.3 | 22.5 | 0.08 | 1.55 | 1.55 | 96 | 1002.5 |
| 20260509205930 | 10 | 216 | 11.3 | 20.9 | 0.05 | 1.52 | 1.52 | 96 | 1002.5 |
| 20260509205730 | 10 | 222 | 9.7 | 19.3 | 0.05 | 1.52 | 1.52 | 96 | 1002.5 |
| 20260509205233 | 10 | 222 | 6.4 | 14.5 | 0.05 | 1.52 | 1.52 | 96 | 1002.6 |
| 20260509204429 | 10 | 272 | 4.8 | 14.5 | 0.05 | 1.52 | 1.52 | 97 | 1002.5 |
| 20260509203930 | 10 | 219 | 4.8 | 16.1 | 0.05 | 1.50 | 1.50 | 97 | 1002.6 |
| 20260509203731 | 10 | 226 | 6.4 | 16.1 | 0.05 | 1.50 | 1.50 | 97 | 1002.6 |
| 20260509203026 | 10 | 200 | 8.0 | 16.1 | 0.03 | 1.47 | 1.47 | 96 | 1002.6 |
| 20260509203005 | 10 | 181 | 8.0 | 16.1 | 0.05 | 1.50 | 1.50 | 96 | 1002.5 |
| 20260509201930 | 10 | 145 | 8.0 | 16.1 | 0.03 | 1.47 | 1.47 | 96 | 1002.7 |
| 20260509201430 | 10 | 213 | 9.7 | 27.4 | 0.03 | 1.47 | 1.47 | 96 | 1002.7 |
| 20260509200930 | 10 | 226 | 11.3 | 27.4 | 0.03 | 1.47 | 1.47 | 96 | 1002.7 |
| 20260509200726 | 10 | 240 | 9.7 | 24.1 | 0.05 | 1.47 | 1.47 | 97 | 1002.8 |
| 20260509195931 | 10 | 222 | 9.7 | 24.1 | 0.05 | 1.47 | 1.47 | 97 | 1002.8 |
| 20260509195434 | 9 | 231 | 8.0 | 20.9 | 0.05 | 1.47 | 1.47 | 97 | 1002.9 |
| 20260509194930 | 9 | 224 | 8.0 | 14.5 | 0.08 | 1.47 | 1.47 | 97 | 1002.9 |
| 20260509194429 | 9 | 223 | 8.0 | 22.5 | 0.08 | 1.47 | 1.47 | 97 | 1003.0 |
| 20260509193930 | 9 | 238 | 9.7 | 22.5 | 0.05 | 1.45 | 1.45 | 97 | 1003.0 |
| 20260509193429 | 9 | 168 | 9.7 | 22.5 | 0.05 | 1.45 | 1.45 | 97 | 1003.0 |
| 20260509192929 | 9 | 211 | 11.3 | 22.5 | 0.08 | 1.45 | 1.45 | 96 | 1003.2 |
| 20260509192429 | 9 | 218 | 11.3 | 20.9 | 0.08 | 1.45 | 1.45 | 96 | 1003.3 |
| 20260509191929 | 9 | 229 | 12.9 | 24.1 | 0.08 | 1.45 | 1.45 | 96 | 1003.3 |
| 20260509191429 | 9 | 226 | 12.9 | 27.4 | 0.08 | 1.45 | 1.45 | 96 | 1003.2 |
| 20260509190929 | 9 | 229 | 11.3 | 27.4 | 0.10 | 1.45 | 1.45 | 96 | 1003.2 |
| 20260509190430 | 9 | 211 | 11.3 | 22.5 | 0.08 | 1.42 | 1.42 | 96 | 1003.3 |
| 20260509185929 | 9 | 200 | 12.9 | 25.7 | 0.08 | 1.42 | 1.42 | 96 | 1003.3 |
| 20260509185430 | 9 | 219 | 12.9 | 29.0 | 0.10 | 1.42 | 1.40 | 96 | 1003.4 |
| 20260509185235 | 9 | 220 | 11.3 | 29.0 | 0.08 | 1.40 | 1.40 | 97 | 1003.5 |
| 20260509184429 | 9 | 165 | 9.7 | 19.3 | 0.08 | 1.40 | 1.40 | 97 | 1003.3 |
| 20260509184229 | 9 | 217 | 9.7 | 19.3 | 0.10 | 1.40 | 1.40 | 97 | 1003.5 |
| 20260509183428 | 10 | 245 | 11.3 | 30.6 | 0.10 | 1.40 | 1.40 | 97 | 1003.5 |
| 20260509182929 | 9 | 168 | 12.9 | 30.6 | 0.08 | 1.37 | 1.37 | 97 | 1003.4 |
| 20260509182430 | 10 | 209 | 11.3 | 27.4 | 0.10 | 1.37 | 1.37 | 97 | 1003.4 |
| 20260509181930 | 9 | 194 | 9.7 | 24.1 | 0.10 | 1.37 | 1.37 | 97 | 1003.4 |
| 20260509181428 | 9 | 260 | 11.3 | 24.1 | 0.13 | 1.37 | 1.37 | 97 | 1003.4 |
| 20260509181227 | 9 | 220 | 11.3 | 24.1 | 0.10 | 1.35 | 1.35 | 97 | 1003.3 |
| 20260509180429 | 10 | 227 | 11.3 | 27.4 | 0.13 | 1.35 | 1.35 | 97 | 1003.4 |
| 20260509175929 | 9 | 248 | 11.3 | 27.4 | 0.13 | 1.35 | 1.32 | 97 | 1003.3 |
| 20260509175429 | 9 | 165 | 11.3 | 29.0 | 0.13 | 1.32 | 1.32 | 97 | 1003.3 |
| 20260509174929 | 9 | 239 | 11.3 | 29.0 | 0.15 | 1.32 | 1.32 | 97 | 1003.4 |
| 20260509174726 | 9 | 186 | 11.3 | 24.1 | 0.18 | 1.32 | 1.32 | 97 | 1003.4 |
| 20260509173928 | 9 | 195 | 9.7 | 24.1 | 0.15 | 1.30 | 1.30 | 97 | 1003.3 |
| 20260509173429 | 9 | 214 | 8.0 | 19.3 | 0.18 | 1.30 | 1.30 | 98 | 1003.4 |
| 20260509173226 | 9 | 229 | 9.7 | 17.7 | 0.20 | 1.30 | 1.30 | 97 | 1003.3 |
| 20260509172429 | 9 | 226 | 9.7 | 17.7 | 0.18 | 1.27 | 1.27 | 97 | 1003.3 |
| 20260509171929 | 9 | 197 | 9.7 | 16.1 | 0.20 | 1.27 | 1.27 | 97 | 1003.2 |
| 20260509171730 | 9 | 210 | 9.7 | 20.9 | 0.18 | 1.24 | 1.24 | 97 | 1003.3 |
| 20260509170929 | 9 | 200 | 9.7 | 20.9 | 0.20 | 1.24 | 1.24 | 97 | 1003.3 |
| 20260509170428 | 9 | 229 | 8.0 | 20.9 | 0.18 | 1.22 | 1.22 | 97 | 1003.3 |
| 20260509170235 | 9 | 195 | 9.7 | 22.5 | 0.20 | 1.22 | 1.22 | 97 | 1003.3 |
| 20260509165726 | 9 | 216 | 11.3 | 22.5 | 0.18 | 1.19 | 1.19 | 97 | 1003.4 |
| 20260509164929 | 9 | 203 | 8.0 | 20.9 | 0.18 | 1.17 | 1.17 | 97 | 1003.3 |
| 20260509164430 | 9 | 188 | 6.4 | 12.9 | 0.15 | 1.14 | 1.14 | 97 | 1003.3 |
| 20260509163929 | 9 | 89 | 6.4 | 16.1 | 0.15 | 1.14 | 1.14 | 97 | 1003.3 |
| 20260509163430 | 9 | 188 | 6.4 | 16.1 | 0.15 | 1.12 | 1.12 | 97 | 1003.4 |
| 20260509162930 | 9 | 206 | 4.8 | 16.1 | 0.13 | 1.09 | 1.09 | 97 | 1003.4 |
| 20260509162430 | 9 | 214 | 6.4 | 12.9 | 0.15 | 1.09 | 1.09 | 97 | 1003.4 |
| 20260509161930 | 9 | 163 | 4.8 | 11.3 | 0.13 | 1.07 | 1.07 | 97 | 1003.5 |
| 20260509161429 | 9 | 231 | 4.8 | 9.7 | 0.15 | 1.07 | 1.07 | 97 | 1003.6 |
| 20260509160929 | 9 | 206 | 6.4 | 12.9 | 0.13 | 1.04 | 1.04 | 97 | 1003.6 |
| 20260509160429 | 9 | 199 | 6.4 | 12.9 | 0.15 | 1.04 | 1.04 | 97 | 1003.7 |
| 20260509155932 | 9 | 220 | 4.8 | 9.7 | 0.13 | 1.02 | 1.02 | 97 | 1003.7 |
| 20260509155431 | 9 | 164 | 3.2 | 9.7 | 0.15 | 1.02 | 1.02 | 97 | 1003.7 |
| 20260509154930 | 9 | 178 | 3.2 | 8.0 | 0.13 | 0.99 | 0.99 | 97 | 1003.7 |
| 20260509154730 | 9 | 197 | 1.6 | 8.0 | 0.15 | 0.99 | 0.99 | 97 | 1003.7 |
| 20260509153933 | 9 | 163 | 1.6 | 4.8 | 0.15 | 0.99 | 0.99 | 97 | 1003.7 |
| 20260509153430 | 8 | 223 | 1.6 | 6.4 | 0.15 | 0.97 | 0.97 | 97 | 1003.8 |
| 20260509152930 | 8 | 46 | 1.6 | 6.4 | 0.18 | 0.97 | 0.94 | 97 | 1003.8 |
| 20260509152729 | 8 | 105 | 1.6 | 4.8 | 0.15 | 0.94 | 0.94 | 97 | 1003.9 |
| 20260509151927 | 8 | 117 | 1.6 | 4.8 | 0.18 | 0.94 | 0.94 | 97 | 1004.0 |
| 20260509151422 | 8 | 28 | 1.6 | 4.8 | 0.18 | 0.91 | 0.91 | 97 | 1004.2 |
| 20260509150915 | 8 | 206 | 1.6 | 3.2 | 0.20 | 0.91 | 0.91 | 97 | 1004.3 |
| 20260509150409 | 8 | 76 | 1.6 | 3.2 | 0.18 | 0.89 | 0.89 | 97 | 1004.2 |
| 20260509145909 | 8 | 213 | 1.6 | 3.2 | 0.20 | 0.89 | 0.86 | 97 | 1004.2 |
| 20260509145408 | 8 | 135 | 1.6 | 3.2 | 0.20 | 0.86 | 0.86 | 97 | 1004.2 |
| 20260509144908 | 8 | 240 | 1.6 | 3.2 | 0.20 | 0.86 | 0.86 | 97 | 1004.2 |
| 20260509144407 | 8 | 135 | 1.6 | 3.2 | 0.20 | 0.84 | 0.84 | 96 | 1004.3 |
| 20260509144208 | 8 | 223 | 1.6 | 3.2 | 0.20 | 0.84 | 0.81 | 96 | 1004.4 |
| 20260509143407 | 8 | 201 | 1.6 | 3.2 | 0.20 | 0.81 | 0.81 | 96 | 1004.4 |
| 20260509142904 | 8 | 178 | 1.6 | 4.8 | 0.20 | 0.79 | 0.79 | 96 | 1004.4 |
| 20260509142405 | 8 | 135 | 1.6 | 4.8 | 0.20 | 0.79 | 0.79 | 96 | 1004.4 |
| 20260509142205 | 8 | 89 | 3.2 | 8.0 | 0.20 | 0.76 | 0.76 | 96 | 1004.4 |
| 20260509141407 | 8 | 117 | 3.2 | 8.0 | 0.18 | 0.74 | 0.74 | 96 | 1004.4 |
| 20260509141206 | 8 | 110 | 1.6 | 6.4 | 0.18 | 0.71 | 0.71 | 96 | 1004.4 |
| 20260509140707 | 8 | 152 | 1.6 | 4.8 | 0.20 | 0.71 | 0.71 | 96 | 1004.3 |
| 20260509135906 | 8 | 117 | 1.6 | 3.2 | 0.18 | 0.69 | 0.69 | 96 | 1004.3 |
| 20260509135404 | 8 | 216 | 1.6 | 3.2 | 0.18 | 0.66 | 0.66 | 97 | 1004.3 |
| 20260509134904 | 8 | 127 | 1.6 | 6.4 | 0.18 | 0.66 | 0.66 | 97 | 1004.3 |
| 20260509134404 | 8 | 197 | 1.6 | 6.4 | 0.18 | 0.64 | 0.64 | 97 | 1004.1 |
| 20260509133902 | 8 | 89 | 1.6 | 4.8 | 0.18 | 0.64 | 0.64 | 97 | 1004.2 |
| 20260509133400 | 8 | 197 | 1.6 | 6.4 | 0.15 | 0.61 | 0.61 | 97 | 1004.2 |
| 20260509132901 | 8 | 0 | 1.6 | 6.4 | 0.15 | 0.58 | 0.58 | 97 | 1004.2 |
| 20260509132401 | 8 | 108 | 1.6 | 4.8 | 0.15 | 0.58 | 0.58 | 97 | 1004.1 |
| 20260509131900 | 8 | 178 | 1.6 | 3.2 | 0.13 | 0.56 | 0.56 | 97 | 1004.2 |
| 20260509131703 | 8 | 314 | 1.6 | 3.2 | 0.13 | 0.56 | 0.56 | 97 | 1004.2 |
| 20260509131200 | 8 | 46 | 1.6 | 3.2 | 0.10 | 0.53 | 0.53 | 97 | 1004.2 |
| 20260509130401 | 8 | 76 | 1.6 | 3.2 | 0.08 | 0.51 | 0.51 | 97 | 1004.2 |
| 20260509125901 | 8 | 206 | 1.6 | 3.2 | 0.08 | 0.51 | 0.51 | 97 | 1004.2 |
| 20260509125755 | 8 | 209 | 1.6 | 4.8 | 0.05 | 0.48 | 0.48 | 98 | 1004.2 |
| 20260509125434 | 8 | 178 | 1.6 | 3.2 | 0.05 | 0.48 | 0.48 | 97 | 1004.3 |
| 20260509124401 | 8 | 314 | 1.6 | 4.8 | 0.03 | 0.46 | 0.46 | 98 | 1004.2 |
| 20260509123902 | 8 | 188 | 1.6 | 4.8 | 0.03 | 0.46 | 0.46 | 98 | 1004.1 |
| 20260509123404 | 8 | 269 | 3.2 | 6.4 | 0.03 | 0.46 | 0.46 | 98 | 1004.1 |
| 20260509123259 | 8 | 197 | 3.2 | 8.0 | 0.00 | 0.43 | 0.43 | 98 | 1004.1 |
| 20260509123254 | 8 | 1 | 3.2 | 8.0 | 0.00 | 0.43 | 0.43 | 98 | 1004.1 |
| 20260509121901 | 8 | 202 | 1.6 | 6.4 | 0.00 | 0.43 | 0.43 | 98 | 1004.1 |
| 20260509121402 | 8 | 187 | 1.6 | 4.8 | 0.00 | 0.43 | 0.43 | 98 | 1004.1 |
| 20260509121301 | 7 | 240 | 1.6 | 4.8 | 0.00 | 0.43 | 0.43 | 98 | 1004.3 |
| 20260509120936 | 8 | 89 | 1.6 | 4.8 | 0.00 | 0.43 | 0.43 | 98 | 1004.1 |
| 20260509115847 | 7 | 253 | 1.6 | 3.2 | 0.00 | 0.43 | 0.43 | 98 | 1004.2 |
| 20260509115341 | 7 | 314 | 1.6 | 4.8 | 0.00 | 0.43 | 0.43 | 98 | 1004.3 |
| 20260509114837 | 7 | 314 | 3.2 | 4.8 | 0.00 | 0.43 | 0.43 | 98 | 1004.3 |
| 20260509114331 | 7 | 89 | 3.2 | 6.4 | 0.00 | 0.43 | 0.43 | 98 | 1004.3 |
| 20260509113830 | 7 | 1 | 1.6 | 6.4 | 0.00 | 0.43 | 0.43 | 98 | 1004.3 |
| 20260509113330 | 7 | 124 | 1.6 | 3.2 | 0.00 | 0.43 | 0.43 | 98 | 1004.4 |
| 20260509113127 | 7 | 15 | 1.6 | 3.2 | 0.00 | 0.43 | 0.43 | 98 | 1004.4 |
| 20260509112330 | 7 | 253 | 1.6 | 6.4 | 0.00 | 0.43 | 0.43 | 98 | 1004.6 |
| 20260509111830 | 7 | 15 | 3.2 | 6.4 | 0.00 | 0.43 | 0.43 | 98 | 1004.6 |
| 20260509111330 | 7 | 291 | 3.2 | 6.4 | 0.03 | 0.43 | 0.43 | 98 | 1004.6 |
| 20260509110829 | 7 | 336 | 1.6 | 4.8 | 0.03 | 0.43 | 0.43 | 98 | 1004.4 |
| 20260509110330 | 7 | 290 | 1.6 | 3.2 | 0.03 | 0.43 | 0.43 | 98 | 1004.4 |
| 20260509110135 | 7 | 1 | 1.6 | 3.2 | 0.03 | 0.43 | 0.43 | 98 | 1004.3 |
| 20260509105330 | 7 | 295 | 1.6 | 3.2 | 0.05 | 0.43 | 0.43 | 98 | 1004.3 |
| 20260509104831 | 7 | 295 | 1.6 | 3.2 | 0.05 | 0.43 | 0.43 | 98 | 1004.3 |
| 20260509104628 | 7 | 331 | 1.6 | 3.2 | 0.05 | 0.43 | 0.43 | 98 | 1004.2 |
| 20260509103829 | 7 | 89 | 1.6 | 3.2 | 0.05 | 0.43 | 0.43 | 98 | 1004.2 |
| 20260509103330 | 7 | 56 | 1.6 | 3.2 | 0.05 | 0.43 | 0.43 | 98 | 1004.3 |
| 20260509102831 | 7 | 63 | 0.0 | 3.2 | 0.05 | 0.43 | 0.43 | 98 | 1004.3 |
| 20260509102330 | 7 | 250 | 0.0 | 1.6 | 0.05 | 0.43 | 0.43 | 98 | 1004.4 |
| 20260509102133 | 7 | 240 | 0.0 | 1.6 | 0.05 | 0.43 | 0.43 | 98 | 1004.7 |
| 20260509101331 | 7 | 240 | 1.6 | 3.2 | 0.03 | 0.41 | 0.41 | 98 | 1004.6 |
| 20260509100832 | 7 | 178 | 1.6 | 3.2 | 0.03 | 0.41 | 0.41 | 98 | 1004.6 |
| 20260509100333 | 7 | 233 | 1.6 | 3.2 | 0.03 | 0.41 | 0.41 | 98 | 1004.6 |
| 20260509100116 | 7 | 269 | 1.6 | 3.2 | 0.05 | 0.41 | 0.41 | 98 | 1004.6 |